Weather History for Berlin, NH

Change the Weather History Date:

Thursday, January 31, 2013

  Actual Average Record
Temperature  
Mean Temperature 40 °F -  
Max Temperature 55 °F 24 °F 55 °F (2013)
Min Temperature 24 °F 1 °F -25 °F (1999)
Degree Days  
Heating Degree Days 24    
Moisture  
Dew Point 32 °F    
Average Humidity 79    
Maximum Humidity 100    
Minimum Humidity 49    
Precipitation  
Precipitation 0.86 in - - ()
Sea Level Pressure  
Sea Level Pressure 29.08 in    
Wind  
Wind Speed 6 mph (WSW)    
Max Wind Speed 18 mph    
Max Gust Speed 36 mph    
Visibility 4 miles    
Events Fog , Rain , Snow    
Averages and records for this station are not official NWS values.
T = Trace of Precipitation, MM = Missing Value Source: NWS Daily Summary

Daily Weather History Graph

Daily Weather History Graph

Search for Another Location

Airport:

Trip Planner

Search our weather history database for the weather conditions in past years. The results will help you decide how hot, cold, wet, or windy it might be!

Date:

Astronomy

Jan. 31, 2013 Rise Set
Actual Time 7:04 AM EST 4:52 PM EST
Civil Twilight 6:33 AM EST 5:23 PM EST
Nautical Twilight 5:58 AM EST 5:58 PM EST
Astronomical Twilight 5:24 AM EST 6:32 PM EST
Moon 10:06 PM EST (1/31) 8:48 AM EST (1/31)
Length of Visible Light 10h 50m
Length of Day
9h 48m
Waning Gibbous, 80% of the Moon is Illuminated
Jan 31
Waning Gibbous
Feb 3
Last Quarter
Feb 10
New
Feb 17
First Quarter
Feb 25
Full

Hourly Weather History & Observations

Time (EST) Temp. Windchill Dew Point Humidity Pressure Visibility Wind Dir Wind Speed Gust Speed Precip Events Conditions
12:14 AM 37.4 °F - 37.4 °F 100% 29.32 in 0.2 mi Calm Calm - 0.00 in Fog Fog
12:41 AM 37.4 °F - 35.6 °F 93% 29.29 in 0.2 mi Calm Calm - 0.00 in Fog Fog
12:52 AM 39.0 °F - 37.0 °F 93% 29.30 in 0.2 mi Calm Calm - 0.00 in Fog , Rain Light Rain
12:59 AM 37.4 °F - 35.6 °F 93% 29.28 in 0.5 mi Calm Calm - 0.00 in Fog Fog
1:52 AM 39.0 °F - 37.0 °F 93% 29.24 in 1.0 mi Calm Calm - 0.02 in   Overcast
1:59 AM 41.0 °F 35.2 °F 39.2 °F 93% 29.20 in 2.0 mi SE 9.2 mph - 0.00 in Rain Light Rain
2:07 AM 44.6 °F 43.1 °F 44.6 °F 100% 29.21 in 8.0 mi SSW 3.5 mph - 0.00 in Rain Light Rain
2:20 AM 42.8 °F - 42.8 °F 100% 29.18 in 1.8 mi Calm Calm - 0.02 in Rain Light Rain
2:27 AM 48.2 °F - 46.4 °F 93% 29.18 in 3.0 mi South 5.8 mph - 0.02 in Rain Light Rain
2:52 AM 48.0 °F - 46.0 °F 93% 29.17 in 8.0 mi SE 8.1 mph - 0.04 in Rain Light Rain
3:52 AM 48.0 °F - 46.0 °F 93% 29.06 in 6.0 mi South 4.6 mph - 0.09 in Rain Light Rain
4:52 AM 50.0 °F - 48.0 °F 93% 28.98 in 10.0 mi South 4.6 mph - 0.02 in Rain Light Rain
5:52 AM 55.0 °F - 50.0 °F 83% 28.89 in 10.0 mi South 16.1 mph 32.2 mph 0.01 in Rain Light Rain
6:47 AM 53.6 °F - 51.8 °F 94% 28.88 in 2.5 mi SW 9.2 mph - 0.16 in Rain Heavy Rain
6:52 AM 55.0 °F - 51.1 °F 86% 28.89 in 2.5 mi SW 8.1 mph 18.4 mph 0.18 in Rain Rain
7:02 AM 53.6 °F - 51.8 °F 94% 28.87 in 1.5 mi WSW 9.2 mph 19.6 mph 0.07 in Rain Heavy Rain
7:07 AM 53.6 °F - 50.0 °F 88% 28.86 in 2.0 mi SW 9.2 mph 19.6 mph 0.08 in Rain Rain
7:16 AM 53.6 °F - 48.2 °F 82% 28.86 in 7.0 mi South 10.4 mph - 0.09 in Rain Light Rain
7:52 AM 52.0 °F - 48.9 °F 89% 28.85 in 10.0 mi SSE 6.9 mph - 0.10 in Rain Light Rain
8:52 AM 50.0 °F - 48.0 °F 93% 28.79 in 6.0 mi South 3.5 mph - 0.01 in   Overcast
9:30 AM 48.2 °F - 44.6 °F 87% 28.83 in 1.8 mi West 18.4 mph 35.7 mph 0.04 in Rain Light Rain
9:33 AM 44.6 °F 38.4 °F 41.0 °F 87% 28.86 in 0.8 mi West 12.7 mph 35.7 mph 0.10 in Rain Heavy Rain
9:43 AM 44.6 °F 40.7 °F 39.2 °F 81% 28.86 in 1.0 mi West 6.9 mph 28.8 mph 0.16 in Rain Rain
9:52 AM 43.0 °F 38.8 °F 39.9 °F 89% 28.90 in 3.0 mi Variable 6.9 mph 18.4 mph 0.16 in Rain Light Rain
10:02 AM 42.8 °F 37.0 °F 37.4 °F 81% 28.89 in 3.0 mi West 10.4 mph 19.6 mph 0.01 in Rain Light Rain
10:07 AM 42.8 °F 39.3 °F 37.4 °F 81% 28.91 in 2.5 mi Variable 5.8 mph 20.7 mph 0.02 in Rain Light Rain
10:52 AM 39.0 °F 32.8 °F 35.1 °F 86% 28.93 in 4.0 mi WNW 9.2 mph 18.4 mph 0.12 in Rain Light Rain
11:42 AM 39.2 °F 31.6 °F 32.0 °F 75% 28.92 in 10.0 mi West 12.7 mph 26.5 mph 0.02 in   Overcast
11:52 AM 39.0 °F 33.4 °F 32.0 °F 76% 28.95 in 10.0 mi West 8.1 mph 20.7 mph 0.02 in Rain Light Rain
12:09 PM 39.2 °F 33.6 °F 32.0 °F 75% 28.94 in 10.0 mi WNW 8.1 mph - 0.00 in Rain Light Rain
12:15 PM 35.6 °F 26.2 °F 32.0 °F 87% 28.96 in 1.8 mi WNW 15.0 mph 29.9 mph 0.01 in Snow Light Snow
12:19 PM 35.6 °F 27.1 °F 30.2 °F 81% 28.96 in 0.8 mi NW 12.7 mph 29.9 mph 0.02 in Snow Light Snow
12:26 PM 33.8 °F 26.4 °F 32.0 °F 93% 28.97 in 0.5 mi WNW 9.2 mph 27.6 mph 0.04 in Fog , Snow Snow
12:52 PM 35.1 °F 30.1 °F 30.9 °F 85% 29.03 in 1.0 mi West 5.8 mph - 0.07 in Snow Light Snow
12:56 PM 35.6 °F 30.7 °F 30.2 °F 81% 29.00 in 2.0 mi Variable 5.8 mph - 0.00 in Snow Light Snow
1:03 PM 35.6 °F 28.0 °F 30.2 °F 81% 29.01 in 9.0 mi West 10.4 mph 17.3 mph 0.00 in   Overcast
1:14 PM 35.6 °F 29.2 °F 28.4 °F 75% 29.01 in 10.0 mi West 8.1 mph 25.3 mph 0.00 in   Mostly Cloudy
1:52 PM 36.0 °F 31.1 °F 27.0 °F 70% 29.04 in 10.0 mi WSW 5.8 mph - 0.00 in Snow Light Snow
2:52 PM 35.1 °F 25.2 °F 23.0 °F 61% 29.08 in 8.0 mi West 16.1 mph 26.5 mph 0.00 in Snow Light Snow
3:52 PM 32.0 °F 22.5 °F 21.9 °F 66% 29.13 in 2.5 mi WSW 12.7 mph 26.5 mph 0.00 in Snow Light Snow
4:10 PM 32.0 °F 21.6 °F 19.4 °F 60% 29.12 in 8.0 mi West 15.0 mph 31.1 mph 0.00 in Snow Light Snow
4:52 PM 32.0 °F 22.5 °F 16.0 °F 52% 29.17 in 10.0 mi West 12.7 mph 26.5 mph 0.00 in   Overcast
5:33 PM 30.2 °F 20.2 °F 19.4 °F 64% 29.17 in 2.5 mi West 12.7 mph 27.6 mph 0.00 in Snow Light Snow
5:40 PM 30.2 °F 22.6 °F 17.6 °F 60% 29.18 in 6.0 mi West 8.1 mph 27.6 mph 0.00 in Snow Light Snow
5:52 PM 30.0 °F 21.1 °F 16.0 °F 56% 29.20 in 9.0 mi West 10.4 mph 31.1 mph 0.00 in   Overcast
6:21 PM 28.4 °F 16.6 °F 17.6 °F 64% 29.20 in 1.8 mi West 16.1 mph 28.8 mph 0.00 in Snow Light Snow
6:30 PM 28.4 °F 18.0 °F 19.4 °F 69% 29.21 in 1.2 mi West 12.7 mph 25.3 mph 0.00 in Snow Light Snow
6:39 PM 26.6 °F 16.2 °F 21.2 °F 80% 29.22 in 0.5 mi West 11.5 mph 27.6 mph 0.00 in Snow Snow
6:47 PM 26.6 °F 18.2 °F 21.2 °F 80% 29.22 in 0.2 mi West 8.1 mph 24.2 mph 0.01 in Fog , Snow Heavy Snow
6:52 PM 26.1 °F 18.4 °F 21.9 °F 84% 29.25 in 0.2 mi Variable 6.9 mph 23.0 mph 0.01 in Fog , Snow Heavy Snow
7:03 PM 26.6 °F 19.1 °F 21.2 °F 80% 29.23 in 0.5 mi Variable 6.9 mph 20.7 mph 0.01 in Snow Snow
7:17 PM 26.6 °F 16.2 °F 15.8 °F 64% 29.23 in 1.8 mi West 11.5 mph 34.5 mph 0.01 in Snow Light Snow
7:21 PM 26.6 °F 17.5 °F 14.0 °F 59% 29.23 in 4.0 mi WSW 9.2 mph 34.5 mph 0.01 in   Mostly Cloudy
7:28 PM 26.6 °F 14.3 °F 12.2 °F 55% 29.24 in 7.0 mi West 16.1 mph 31.1 mph 0.01 in Snow Light Snow
7:52 PM 27.0 °F 13.9 °F 10.0 °F 49% 29.28 in 7.0 mi WSW 18.4 mph 28.8 mph 0.01 in   Partly Cloudy
8:52 PM 26.1 °F 16.2 °F 9.0 °F 49% 29.30 in 10.0 mi West 10.4 mph 31.1 mph 0.00 in   Overcast
9:52 PM 24.1 °F 15.2 °F 10.0 °F 55% 29.35 in 10.0 mi WNW 8.1 mph 17.3 mph N/A   Mostly Cloudy